Weather History for Atlanta Fulton, GA

Change the Weather History Date:

Friday, April 26, 2013

  Actual Average Record
Temperature  
Mean Temperature 57 °F 64 °F  
Max Temperature 76 °F 76 °F 84 °F (2012)
Min Temperature 38 °F 52 °F 38 °F (2013)
Degree Days  
Heating Degree Days 8 3  
Month to date heating degree days 148 143  
Since 1 July heating degree days 167 2842  
Cooling Degree Days 0 2  
Month to date cooling degree days 27 27  
Year to date cooling degree days 27 33  
Growing Degree Days 6 (Base 50)    
Moisture  
Dew Point 40 °F    
Average Humidity 59    
Maximum Humidity 93    
Minimum Humidity 25    
Precipitation  
Precipitation 0.00 in 0.14 in 1.82 in (1982)
Month to date precipitation 2.79 3.24  
Year to date precipitation 3.23 17.22  
Snow  
Snow 0.00 in - - ()
Month to date snowfall 0.0  
Since 1 July snowfall 0.0  
Snow Depth 0.00 in    
Sea Level Pressure  
Sea Level Pressure 30.31 in    
Wind  
Wind Speed 4 mph (East)    
Max Wind Speed 17 mph    
Max Gust Speed 23 mph    
Visibility 10 miles    
Events      
T = Trace of Precipitation, MM = Missing Value Source: NWS Daily Summary

Daily Weather History Graph

Daily Weather History Graph

Search for Another Location

Airport:

Trip Planner

Search our weather history database for the weather conditions in past years. The results will help you decide how hot, cold, wet, or windy it might be!

Date:

Astronomy

Apr. 26, 2013 Rise Set
Actual Time 6:54 AM EDT 8:17 PM EDT
Civil Twilight 6:28 AM EDT 8:44 PM EDT
Nautical Twilight 5:56 AM EDT 9:15 PM EDT
Astronomical Twilight 5:23 AM EDT 9:48 PM EDT
Moon 9:35 PM EDT (4/26) 7:23 AM EDT (4/26)
Length of Visible Light 14h 16m
Length of Day
13h 23m
Full, 99% of the Moon is Illuminated
Apr 26
Full
May 2
Last Quarter
May 9
New
May 18
First Quarter
May 25
Full

Hourly Weather History & Observations

Time (EDT) Temp. Windchill Dew Point Humidity Pressure Visibility Wind Dir Wind Speed Gust Speed Precip Events Conditions
12:53 AM 45.0 °F - 39.0 °F 80% 30.32 in 10.0 mi Calm Calm - N/A   Clear
1:53 AM 46.9 °F - 37.9 °F 71% 30.31 in 10.0 mi Calm Calm - N/A   Clear
2:53 AM 42.8 °F - 37.4 °F 81% 30.30 in 10.0 mi Calm Calm - N/A   Clear
3:53 AM 46.0 °F 43.9 °F 37.9 °F 73% 30.28 in 10.0 mi East 4.6 mph - N/A   Clear
4:53 AM 41.0 °F - 37.0 °F 86% 30.29 in 10.0 mi Calm Calm - N/A   Clear
5:53 AM 39.0 °F 36.8 °F 37.0 °F 93% 30.31 in 9.0 mi ENE 3.5 mph - N/A   Clear
6:53 AM 37.9 °F - 36.0 °F 93% 30.32 in 8.0 mi Calm Calm - N/A   Clear
7:53 AM 41.0 °F - 39.0 °F 93% 30.34 in 10.0 mi Calm Calm - N/A   Clear
8:53 AM 50.0 °F - 42.1 °F 74% 30.37 in 10.0 mi Calm Calm - N/A   Clear
9:53 AM 60.1 °F - 35.1 °F 39% 30.35 in 10.0 mi ENE 8.1 mph - N/A   Clear
10:53 AM 64.9 °F - 33.1 °F 31% 30.35 in 10.0 mi ESE 10.4 mph 21.9 mph N/A   Clear
11:53 AM 68.0 °F - 36.0 °F 31% 30.36 in 10.0 mi East 9.2 mph - N/A   Clear
12:53 PM 70.0 °F - 36.0 °F 29% 30.36 in 10.0 mi ENE 8.1 mph - N/A   Clear
1:53 PM 72.0 °F - 37.0 °F 28% 30.35 in 10.0 mi East 10.4 mph 16.1 mph N/A   Clear
2:53 PM 73.0 °F - 37.0 °F 27% 30.32 in 10.0 mi East 5.8 mph - N/A   Clear
3:53 PM 75.0 °F - 37.0 °F 25% 30.29 in 10.0 mi SSE 10.4 mph - N/A   Clear
4:53 PM 75.0 °F - 37.9 °F 26% 30.28 in 10.0 mi Variable 5.8 mph - N/A   Clear
5:53 PM 75.0 °F - 41.0 °F 29% 30.27 in 10.0 mi East 5.8 mph - N/A   Clear
6:53 PM 75.0 °F - 43.0 °F 32% 30.27 in 10.0 mi SE 6.9 mph - N/A   Clear
7:53 PM 68.0 °F - 50.0 °F 52% 30.30 in 10.0 mi Calm Calm - N/A   Partly Cloudy
8:53 PM 66.9 °F - 50.0 °F 54% 30.26 in 10.0 mi East 3.5 mph - N/A   Clear
9:53 PM 62.1 °F - 51.1 °F 67% 30.26 in 10.0 mi Calm Calm - N/A   Clear
10:53 PM 63.0 °F - 51.1 °F 65% 30.27 in 10.0 mi Calm Calm - N/A   Clear
11:53 PM 61.0 °F - 52.0 °F 72% 30.29 in 10.0 mi Calm Calm - N/A   Overcast